Regional Weather Roundup
Issued by NWS

Home | Current Version | Previous Version | Text Only | Print | Product List | Glossary On
Versions: 1 2 3 4 5 6 7 8 9 10 11 12 13 14 15 16 17 18 19 20 21 22 23 24 25 26 27 28 29 30 31 32 33 34 35 36 37 38 39 40 41 42 43 44 45 46 47 48 49 50
000
ASUS43 KMPX 270701
RWRMN
WEATHER ROUNDUP FOR MINNESOTA
NATIONAL WEATHER SERVICE TWIN CITIES/CHANHASSEN MN
200 AM CDT SAT MAY 27 2017


NOTE: "FAIR" INDICATES FEW OR NO CLOUDS BELOW 12,000 FEET WITH NO
SIGNIFICANT WEATHER AND/OR OBSTRUCTIONS TO VISIBILITY. N/A MEANS
CURRENT SKY AND/OR WEATHER CONDITIONS ARE NOT AVAILABLE.

MNZ060>063-068>070-270800-
   Twin Cities Metro

CITY           SKY/WX    TMP DP  RH WIND       PRES   REMARKS
TWIN CITIES    CLEAR     61  45  55 CALM      29.85S
ST PAUL        CLEAR     56  51  84 CALM      29.85S
CRYSTAL        CLEAR     55  46  71 CALM      29.84R
BLAINE         CLEAR     54  48  82 CALM      29.85S
LAKEVILLE      CLEAR     54  50  87 CALM      29.86S
EDEN PRAIRIE   CLEAR     59  46  62 CALM      29.84S
SOUTH ST PAUL  CLEAR     58  49  72 CALM      29.85S
LAKE ELMO      FAIR      52  50  93 CALM      29.86S
$$
MNZ001>005-007-008-013>017-022>024-027-028-270800-
   Northwest Minnesota

CITY           SKY/WX    TMP DP  RH WIND       PRES   REMARKS
BEMIDJI        CLEAR     50  43  77 SW6       29.82R
HALLOCK        CLEAR     46  39  76 CALM      29.75S
ROSEAU         CLEAR     52  45  76 SW7       29.75S
WARROAD        CLEAR     52  45  76 SW7       29.76S
CROOKSTON      CLOUDY    48  43  81 SW8       29.81R
FOSSTON        CLOUDY    46  41  81 S6        29.82R
DETROIT LAKES  CLOUDY    54  43  66 SW3       29.85R
MOORHEAD       CLOUDY    54  43  66 S7        29.84S
PARK RAPIDS    CLEAR     49  40  71 W3        29.83R
MAHNOMEN       FAIR      48  42  79 S7        29.82R
$$
MNZ006-009>011-018-025>026-270800-
   North Central Minnesota

CITY           SKY/WX    TMP DP  RH WIND       PRES   REMARKS
BAUDETTE       CLEAR     49  43  80 SW5       29.75S
FLAG ISLAND    CLEAR     55  46  71 W12       29.72S
INTL FALLS     CLEAR     43  40  89 W5        29.77R
WASKISH        CLEAR     52  46  82 S5        29.79R
BIG FORK       CLEAR     46  43  87 CALM      29.79F
LONGVILLE      CLEAR     46  46 100 SW3       29.83R
GRAND RAPIDS   CLEAR     50  45  83 W5        29.82F
CRANE LAKE     CLEAR     45  45 100 CALM      29.79S
COOK           CLEAR     45  43  93 CALM      29.79S
WALKER         FAIR      46  42  88 SW3       29.83R
$$
MNZ012-019>021-037-270800-
   Northeast Minnesota

CITY           SKY/WX    TMP DP  RH WIND       PRES   REMARKS
DULUTH         CLEAR     54  48  80 NW7       29.79S
ELY            CLEAR     50  50 100 CALM      29.78S FOG
HIBBING        CLEAR     43  43 100 CALM      29.79S
EVELETH        FOG       46  44  92 CALM      29.80F VSB 3/4
DULUTH HARBOR  CLEAR     46  46 100 S7        29.80S
TWO HARBORS    CLEAR     48  45  87 CALM      29.77S
SILVER BAY     CLEAR     46  46 100 CALM      29.77R FOG
GRAND MARAIS     N/A     43  43 100 CALM      29.78R
G MARAIS ARPRT PTCLDY    52  46  82 W3        29.79S
$$
MNZ029>031-032-039>041-046>048-054>057-064-270800-
   West Central Minnesota

CITY           SKY/WX    TMP DP  RH WIND       PRES   REMARKS
FERGUS FALLS   PTCLDY    52  45  76 S5        29.84S
WHEATON        CLOUDY    54  43  66 SW3       29.87F
MORRIS         CLEAR     54  46  76 W3        29.85F
ALEXANDRIA     CLEAR     48  44  86 W5        29.87S
ELBOW LAKE     FAIR      50  44  81 CALM      29.86S
WADENA         CLEAR     50  43  76 W6        29.84F
GLENWOOD       CLEAR     52  46  82 W7        29.87S
APPLETON       CLEAR     54  46  76 CALM      29.87R
BENSON         CLEAR     52  46  82 CALM      29.88S
ORTONVILLE     CLEAR     52  46  82 CALM      29.87S
MADISON        CLEAR     55  54  94 SW5       29.88S
WILLMAR        FAIR      52  46  82 CALM      29.89R
$$
MNZ033>034-036-042>043-049>051-058-059-270800-
   Central Minnesota

CITY           SKY/WX    TMP DP  RH WIND       PRES   REMARKS
ST CLOUD       CLEAR     52  46  80 CALM      29.84S
SAUK CENTRE    FAIR      51  45  79 W3        29.87R
PAYNESVILLE    CLEAR     48  44  85 W5        29.88R
AITKIN         CLEAR     46  45  93 CALM      29.82R
PINE RIVER     CLEAR     46  45  93 CALM      29.87R
BRAINERD       CLEAR     49  45  86 SW5       29.84R
STAPLES        CLEAR     50  43  76 W5        29.84S
LONG PRAIRIE   FAIR      48  45  87 CALM      29.86S
LITTLE FALLS   CLEAR     46  43  87 CALM      29.85S
LITCHFIELD     CLEAR     55  48  76 CALM      29.88R
BUFFALO        CLEAR     55  47  73 W3        29.87R
MAPLE LAKE     CLEAR     54  47  76 W3        29.87R
HUTCHINSON     CLEAR     55  48  77 CALM      29.88S
$$
MNZ037-044-045-052-053-270800-
   East Central Minnesota

CITY           SKY/WX    TMP DP  RH WIND       PRES   REMARKS
PRINCETON      CLEAR     52  46  82 CALM      29.85S
MORA           CLOUDY    54  45  71 W3        29.85R
CAMBRIDGE      CLEAR     54  45  71 CALM      29.83R
RUSH CITY      CLOUDY    55  47  74 CALM      29.84R
MOOSE LAKE     CLEAR     54  45  71 CALM      29.80S
HINCKLEY       FAIR      54  46  76 W3        29.82S
CLOQUET        CLEAR     52  45  76 W7        29.80S
MCGREGOR       CLEAR     52  46  82 CALM      29.82S
$$
MNZ071>073-080-081-089-090-097-098-270800-
   Southwest Minnesota

CITY           SKY/WX    TMP DP  RH WIND       PRES   REMARKS
MONTEVIDEO     CLEAR     54  45  71 CALM      29.88R
CANBY          PTCLDY    53  47  78 CALM      29.90S
MARSHALL       MOCLDY    54  46  74 W7        29.90R
REDWOOD FALLS  CLEAR     56  44  64 W5        29.87S
OLIVIA         CLEAR     52  43  71 W3        29.88R
PIPESTONE      PTCLDY    55  41  58 CALM      29.91R
WINDOM         CLEAR     54  45  71 CALM      29.90S
WORTHINGTON    CLEAR     53  43  68 NW5       29.92R
JACKSON        CLEAR     54  45  71 NW8       29.91R
TRACY          CLEAR     57  47  68 W5        29.90S
SLAYTON        CLEAR     53  44  72 NW3       29.91S
$$
MNZ065>067-074>077-082>085-091>093-270800-
   South Central Minnesota

CITY           SKY/WX    TMP DP  RH WIND       PRES   REMARKS
NEW ULM        CLEAR     55  45  67 NW5       29.88R
ST JAMES       CLEAR     55  46  71 W5        29.89S
FAIRMONT       CLEAR     58  45  62 NW7       29.89R
GLENCOE        CLEAR     56  51  83 CALM      29.86S
FARIBAULT      CLEAR     54  50  87 CALM      29.87S
OWATONNA       CLEAR     54  46  76 CALM      29.88R
WASECA         CLEAR     52  46  82 CALM      29.89R
ALBERT LEA     CLEAR     55  54  94 CALM      29.88R
$$
MNZ078>079-086>088-094>096-270800-
   Southeast Minnesota

CITY           SKY/WX    TMP DP  RH WIND       PRES   REMARKS
ROCHESTER      CLEAR     56  54  93 W7        29.88S
RED WING       CLOUDY    55  54  94 CALM      29.84F
STANTON        CLEAR     54  49  83 CALM      29.85S
DODGE CENTER   CLEAR     55  48  76 W3        29.87F
WINONA         PTCLDY    59  55  88 SE5       29.86S
AUSTIN         FOG       55  54  94 CALM      29.87S VSB 1/2
PRESTON        CLOUDY    58  55  92 S9        29.88F
$$
ABBREVIATIONS USED IN REMARKS
   TC - TEMPERATURES IN CELSIUS
  WCI - WIND CHILL INDEX
   HX - HEAT INDEX
  VSB - VISIBILITY
$$




USA.gov is the U.S. government's official web portal to all federal, state and local government web resources and services.